Weather reports worldwide

Advertisment
Vigo Peinador, Spain (8045): temperature & dewpoint: 11.06.2019 05:00:00 - 17.06.2019 05:00:00 (CEST)Vigo Peinador, Spain (8045): wind speed: 11.06.2019 05:00:00 - 17.06.2019 05:00:00 (CEST)Vigo Peinador, Spain (8045): wind direction: 11.06.2019 05:00:00 - 17.06.2019 05:00:00 (CEST)Vigo Peinador, Spain (8045): reduced air pressure: 11.06.2019 05:00:00 - 17.06.2019 05:00:00 (CEST)Vigo Peinador, Spain (8045): visibility: 11.06.2019 05:00:00 - 17.06.2019 05:00:00 (CEST)
Date & Time tt [°C] td [°C] ff [km/h] ff [kn] dd ppp [hPa] vv [km]
17.06.2019 05:00:00 11,5 9,7 5 3 WSW 1017,7 10
17.06.2019 04:00:00 11,4 9,5 4 2 WSW 1017,9 10
17.06.2019 03:00:00 12,3 10,4 8 4 SW 1018,7 10
17.06.2019 02:00:00 11,9 10,0 5 3 WSW 1018,7 10
17.06.2019 01:00:00 12,5 10,2 2 1 - 1019,0 10
17.06.2019 00:00:00 13,3 10,8 9 5 W 1019,1 10
16.06.2019 23:00:00 13,8 11,1 8 4 SW 1019,1 10
16.06.2019 22:00:00 15,0 11,3 13 7 WSW 1018,7 10
16.06.2019 21:00:00 16,7 10,1 21 11 WSW 1018,5 10
16.06.2019 20:00:00 18,5 9,6 18 10 WSW 1017,9 30
16.06.2019 19:00:00 19,1 10,0 18 10 W 1017,9 10
16.06.2019 18:00:00 19,4 10,3 18 10 W 1018,0 10
16.06.2019 17:00:00 19,6 10,8 21 11 W 1018,2 10
16.06.2019 16:00:00 19,9 11,4 24 13 W 1018,3 10
16.06.2019 15:00:00 21,0 11,8 16 9 W 1018,4 10
16.06.2019 14:00:00 20,9 11,4 8 4 - 1018,6 10
16.06.2019 13:00:00 20,1 10,1 8 4 NNE 1018,9 10
16.06.2019 12:00:00 18,4 11,2 8 4 ENE 1019,3 10
16.06.2019 11:00:00 16,7 9,9 5 3 SSW 1019,7 30
16.06.2019 10:00:00 14,9 10,2 4 2 S 1020,0 10
16.06.2019 09:00:00 13,9 10,4 5 3 ENE 1020,0 10
16.06.2019 08:00:00 10,7 8,7 5 3 SW 1020,2 10
16.06.2019 07:00:00 9,6 8,5 4 2 - 1020,1 10
16.06.2019 06:00:00 9,7 7,9 4 2 - 1020,3 10
16.06.2019 05:00:00 10,3 9,1 4 2 - 1020,6 10
16.06.2019 04:00:00 10,1 9,3 4 2 N 1021,1 10
16.06.2019 03:00:00 11,0 9,1 5 3 NNW 1021,4 10
16.06.2019 02:00:00 12,1 9,5 9 5 N 1021,9 35
16.06.2019 01:00:00 11,6 8,8 5 3 NNW 1022,6 10
16.06.2019 00:00:00 11,5 8,4 5 3 NW 1022,5 10
15.06.2019 23:00:00 13,1 8,6 11 6 W 1022,2 35
15.06.2019 22:00:00 14,3 9,9 11 6 W 1021,8 10
15.06.2019 21:00:00 15,9 8,9 11 6 W 1021,8 10
15.06.2019 20:00:00 16,7 9,7 13 7 W 1021,8 10
15.06.2019 19:00:00 17,2 9,0 16 9 W 1021,7 10
15.06.2019 18:00:00 17,8 8,4 15 8 W 1021,9 10
15.06.2019 17:00:00 17,8 9,5 15 8 WSW 1022,1 35
15.06.2019 16:00:00 17,8 10,2 16 9 W 1022,2 10
15.06.2019 15:00:00 17,8 9,8 15 8 W 1022,1 10
15.06.2019 14:00:00 16,7 10,0 11 6 WSW 1022,3 35
15.06.2019 13:00:00 15,6 9,0 11 6 SW 1022,3 10
15.06.2019 12:00:00 17,3 10,7 5 3 - 1021,9 10
15.06.2019 11:00:00 14,8 10,0 11 6 S 1021,9 30
15.06.2019 10:00:00 13,5 11,7 9 5 S 1021,7 8
15.06.2019 09:00:00 11,7 11,4 8 4 S 1021,5 0,5
15.06.2019 08:00:00 11,1 10,8 8 4 SSW 1021,2 -
15.06.2019 07:00:00 11,1 10,8 9 5 SSW 1020,7 0,1
15.06.2019 06:00:00 11,3 10,9 5 3 SSW 1020,3 -
15.06.2019 05:00:00 12,3 11,2 4 2 WSW 1020,1 10
15.06.2019 04:00:00 12,3 11,0 2 1 W 1020,0 10
15.06.2019 03:00:00 13,2 11,4 4 2 E 1019,9 10
15.06.2019 02:00:00 13,3 11,5 9 5 SW 1019,9 20
15.06.2019 01:00:00 13,6 11,1 13 7 SSW 1019,8 10
15.06.2019 00:00:00 13,9 10,3 9 5 SSW 1019,6 10
14.06.2019 23:00:00 14,1 10,3 9 5 SW 1019,0 25
14.06.2019 22:00:00 14,3 10,1 9 5 WSW 1018,3 10
14.06.2019 21:00:00 14,7 9,9 11 6 WSW 1017,9 10
14.06.2019 20:00:00 15,3 8,9 16 9 W 1017,4 30
14.06.2019 19:00:00 15,3 10,0 21 11 W 1016,8 10
14.06.2019 18:00:00 16,2 9,3 22 12 W 1016,5 10
14.06.2019 17:00:00 17,0 8,9 22 12 WSW 1016,2 10
14.06.2019 16:00:00 17,0 7,9 21 11 W 1015,9 10
14.06.2019 15:00:00 17,2 6,3 16 9 WSW 1015,6 10
14.06.2019 14:00:00 17,4 5,8 18 10 WSW 1015,6 30
14.06.2019 13:00:00 17,3 7,5 13 7 W 1015,1 10
14.06.2019 12:00:00 16,3 8,2 9 5 SW 1014,9 10
14.06.2019 11:00:00 17,3 9,7 8 4 ESE 1014,5 30
14.06.2019 10:00:00 14,7 10,2 4 2 E 1014,5 10
14.06.2019 09:00:00 11,6 9,3 0 0 N 1014,4 10
14.06.2019 08:00:00 10,2 8,8 4 2 ENE 1014,5 10
14.06.2019 07:00:00 8,7 7,3 2 1 - 1014,6 10
14.06.2019 06:00:00 8,6 7,2 0 0 N 1014,2 10
14.06.2019 05:00:00 9,1 7,4 5 3 N 1013,7 10
14.06.2019 04:00:00 9,1 7,4 5 3 NNW 1013,9 10
14.06.2019 03:00:00 9,7 8,0 4 2 - 1014,1 10
14.06.2019 02:00:00 10,5 8,4 2 1 - 1014,4 10
14.06.2019 01:00:00 11,4 9,0 8 4 W 1014,6 10
14.06.2019 00:00:00 11,8 8,8 11 6 W 1014,6 10
13.06.2019 23:00:00 12,2 8,5 11 6 W 1014,3 10
13.06.2019 22:00:00 13,2 8,7 15 8 W 1013,9 10
13.06.2019 21:00:00 14,9 7,2 11 6 W 1013,6 10
13.06.2019 20:00:00 15,5 7,7 16 9 WNW 1013,2 30
13.06.2019 19:00:00 15,9 7,6 15 8 W 1013,2 10
13.06.2019 18:00:00 16,7 8,4 16 9 W 1013,0 10
13.06.2019 17:00:00 16,4 7,9 21 11 W 1013,0 10
13.06.2019 16:00:00 16,3 7,8 22 12 W 1012,9 10
13.06.2019 15:00:00 16,9 7,4 18 10 W 1012,9 10
13.06.2019 14:00:00 17,0 6,9 15 8 W 1012,8 30
13.06.2019 13:00:00 14,8 6,5 9 5 W 1012,9 10
13.06.2019 12:00:00 15,3 6,9 5 3 WNW 1012,9 10
13.06.2019 11:00:00 15,7 8,5 8 4 NE 1012,8 30
13.06.2019 10:00:00 14,5 10,5 5 3 - 1013,0 10
13.06.2019 09:00:00 11,8 8,6 5 3 NE 1013,0 10
13.06.2019 08:00:00 9,8 8,2 2 1 - 1013,2 10
13.06.2019 07:00:00 8,7 7,5 8 4 NNE 1013,3 10
13.06.2019 06:00:00 8,8 7,8 4 2 NE 1013,3 10
13.06.2019 05:00:00 9,3 7,7 8 4 N 1013,3 30
13.06.2019 04:00:00 9,7 7,3 4 2 N 1013,4 10
13.06.2019 03:00:00 10,4 7,8 5 3 N 1013,6 10
13.06.2019 02:00:00 10,8 8,0 9 5 N 1013,8 10
13.06.2019 01:00:00 11,1 8,8 9 5 N 1014,1 10
13.06.2019 00:00:00 11,9 8,9 9 5 N 1014,4 10
12.06.2019 23:00:00 12,1 8,2 8 4 NW 1014,5 10
12.06.2019 22:00:00 13,0 8,5 13 7 W 1014,3 10
12.06.2019 21:00:00 14,7 8,6 16 9 W 1014,0 10
12.06.2019 20:00:00 15,6 8,3 16 9 WNW 1014,1 40
12.06.2019 19:00:00 15,9 8,5 18 10 W 1014,3 10
12.06.2019 18:00:00 16,6 8,0 18 10 W 1014,7 10
12.06.2019 17:00:00 16,7 8,3 18 10 WNW 1014,9 10
12.06.2019 16:00:00 16,9 8,1 18 10 W 1015,1 10
12.06.2019 15:00:00 17,2 8,3 11 6 - 1015,5 10
12.06.2019 14:00:00 16,3 7,8 9 5 NNE 1016,2 10
12.06.2019 13:00:00 14,9 7,5 11 6 N 1016,9 10
12.06.2019 12:00:00 16,2 6,4 9 5 N 1017,1 10
12.06.2019 11:00:00 14,9 6,8 9 5 NE 1017,1 10
12.06.2019 10:00:00 13,5 8,7 9 5 NE 1017,4 10
12.06.2019 09:00:00 11,7 8,2 5 3 NNE 1017,9 10
12.06.2019 08:00:00 9,9 6,6 4 2 NW 1018,3 40
12.06.2019 07:00:00 7,8 6,7 9 5 NNE 1018,6 10
12.06.2019 06:00:00 8,9 6,7 5 3 N 1018,2 10
12.06.2019 05:00:00 9,1 7,0 5 3 NNE 1018,7 10
12.06.2019 04:00:00 9,5 6,9 4 2 - 1019,2 10
12.06.2019 03:00:00 10,2 7,3 9 5 N 1019,6 10
12.06.2019 02:00:00 10,4 7,3 11 6 N 1020,1 35
12.06.2019 01:00:00 10,5 7,0 5 3 NE 1020,4 10
12.06.2019 00:00:00 11,6 6,7 9 5 NNE 1020,4 10
11.06.2019 23:00:00 12,6 6,0 13 7 NNE 1020,2 40
11.06.2019 22:00:00 13,8 5,4 18 10 NNE 1019,6 10
11.06.2019 21:00:00 15,5 6,2 18 10 N 1019,2 10
11.06.2019 20:00:00 17,0 6,3 22 12 N 1018,9 10
11.06.2019 19:00:00 18,2 7,2 26 14 N 1018,7 10
11.06.2019 18:00:00 18,3 6,2 18 10 NNE 1018,7 10
11.06.2019 17:00:00 19,3 7,4 18 10 N 1018,6 10
11.06.2019 16:00:00 18,4 6,3 24 13 N 1019,0 10
11.06.2019 15:00:00 17,6 6,1 24 13 N 1019,3 10
11.06.2019 14:00:00 17,3 6,2 26 14 N 1019,7 10
11.06.2019 13:00:00 16,2 4,6 26 14 NNE 1020,0 10
11.06.2019 12:00:00 16,7 5,9 22 12 NE 1019,6 10
11.06.2019 11:00:00 15,1 6,2 22 12 NNE 1019,7 40
11.06.2019 10:00:00 14,2 7,0 18 10 NE 1019,8 10
11.06.2019 09:00:00 12,8 8,2 15 8 NE 1019,4 10
11.06.2019 08:00:00 11,4 9,3 15 8 NNE 1019,3 10
11.06.2019 07:00:00 10,7 9,8 15 8 N 1019,1 10
11.06.2019 06:00:00 11,2 8,3 9 5 NNE 1018,5 10
11.06.2019 05:00:00 11,7 8,0 5 3 NE 1018,7 10

tt = temperature
td = dewpoint
ff = wind speed
dd = wind direction
ppp = reduced air pressure
vv = visibility

Next stations